Regional Weather Roundup
Issued by NWS

Home | Current Version | Previous Version | Text Only | Print | Product List | Glossary On
Versions: 1 2 3 4 5 6 7 8 9 10 11 12 13 14 15 16 17 18 19 20 21 22 23 24 25 26 27 28 29 30 31 32 33 34 35 36 37 38 39 40 41 42 43 44 45 46 47 48 49 50
000
ASPQ40 PGUM 290212
RWRPQ
WEATHER ROUNDUP FOR THE MARIANAS AND MICRONESIA
NATIONAL WEATHER SERVICE TIYAN GU
1200 PM CHST MON MAY 29 2017

GUZ001>004-290300-
MARIANA ISLANDS-

CITY           SKY/WX    TMP DP  RH WIND       PRES   REMARKS
GUAM AIRPORT   PTSUNNY   88  77  70 E10G20    29.89F HX 100
ANDERSEN AFB   MOSUNNY   86  77  74 E13       29.91F HX  97
ROTA AIRPORT   MOSUNNY   84  77  79 E17       29.90F HX  94
TINIAN AP      PTSUNNY   88  75  66 NE12      29.87F HX  97
SAIPAN AP      MOSUNNY   91  75  59 NE14      29.89F HX 102

$$

PMZ161-290300-
REPUBLIC OF PALAU-

CITY           SKY/WX    TMP DP  RH WIND       PRES   REMARKS
KOROR AP       PTSUNNY   88  79  74 E12G18    29.81S HX 102
KOROR WSO      PTSUNNY   90  79  70 E6        29.82F HX 105

$$

PMZ171>174-290300-
FEDERATED STATES OF MICRONESIA-

CITY           SKY/WX    TMP DP  RH WIND       PRES   REMARKS
YAP AIRPORT    PTSUNNY   88  79  74 E10       29.81F HX 102
CHUUK AP       MOSUNNY   88  84  89 NE10      29.81F HX 112
POHNPEI AP     CLOUDY    88  77  70 E7        29.82F HX 100
POHNPEI WSO    PTSUNNY   86  77  74 E12       29.84F HX  97
KOSRAE AP      PTSUNNY   88  77  70 E12       29.78F HX 100

$$

PMZ181-290300-
REPUBLIC OF THE MARSHALL ISLANDS-

CITY           SKY/WX    TMP DP  RH WIND       PRES   REMARKS
KWAJALEIN AP   SUNNY     90  77  66 E10       29.81F HX 102
MAJURO AP      PTSUNNY   86  77  74 E13       29.78  HX  97
MAJURO WSO     PTSUNNY   88  79  74 E7        29.78F HX 102

$$




USA.gov is the U.S. government's official web portal to all federal, state and local government web resources and services.